Wind_Speed
2 1 1 3 8 13 13 12 10 11 18 24 23 20 22 30 33 34 38 42 44 45 46 50 52 47 41 37 35 36 38 38 39 40 39 35 31 29 28 27 26 26 25 24
8 7 3 7 7 1 3 6 10 15 19 21 25 26 24 27 32 34 35 37 40 43 46 46 42 35 32 32 35 38 39 40 41 40 38 35 33 31 28 27 26 25 24 22
10 8 7 7 5 5 6 9 13 15 18 20 20 19 17 20 27 29 29 32 34 37 39 38 29 20 23 29 33 37 40 41 41 39 37 35 34 33 30 27 24 23 22 22
6 7 11 9 8 9 9 13 16 18 19 19 17 16 15 20 25 27 30 32 29 34 40 41 35 30 30 31 35 37 39 39 38 36 35 34 32 30 29 26 24 22 21 22
6 8 10 9 10 10 11 13 13 13 12 11 13 13 17 22 26 27 28 32 36 40 41 41 39 37 36 38 39 35 33 32 31 31 31 29 27 26 26 26 25 23 22 23
2 5 7 7 7 9 10 9 7 11 17 21 21 16 17 20 25 28 31 34 36 38 38 39 38 38 39 38 36 32 31 31 30 30 29 28 26 25 25 27 27 26 26 25
7 3 4 9 10 9 8 8 8 14 22 25 17 9 17 20 22 25 28 30 33 34 35 35 36 36 37 38 37 36 34 34 34 34 33 32 30 29 28 29 30 30 31 30
8 6 6 11 12 10 9 7 9 15 16 18 22 20 23 24 26 25 26 30 34 36 38 39 40 40 41 40 40 40 40 40 40 40 40 40 39 37 36 34 33 33 34 35
10 8 8 12 12 10 11 10 11 15 14 14 18 30 31 28 28 25 27 34 38 40 42 44 45 45 46 47 46 46 46 46 47 47 47 47 47 47 46 45 43 41 39 38
7 7 6 8 10 13 15 15 15 16 17 18 17 30 34 35 33 35 37 39 41 44 46 47 49 50 50 51 52 52 53 53 54 55 55 55 55 55 55 54 53 51 48 45
8 7 6 8 12 10 14 17 19 20 20 21 21 30 34 36 37 40 41 43 46 48 49 51 52 53 54 55 56 57 57 58 60 61 62 62 62 62 62 61 60 59 57 54
11 11 9 10 17 15 11 19 23 24 24 24 25 32 33 37 39 42 45 48 51 52 53 54 56 57 57 58 59 60 61 62 63 64 65 66 67 66 66 66 66 65 63 60
12 12 11 12 17 19 17 19 23 26 27 28 31 36 37 39 42 45 48 51 53 56 59 62 63 63 63 64 65 66 67 67 68 68 69 69 70 70 70 69 68 68 67 65
13 14 14 13 13 16 19 21 23 26 29 31 34 40 44 43 44 48 52 56 59 62 65 66 67 68 69 70 71 72 74 75 76 77 77 77 77 77 76 75 73 72 71 69
16 15 16 15 14 15 19 21 23 27 30 34 38 42 49 50 51 54 57 60 64 67 68 70 72 74 76 78 78 78 77 76 75 75 76 78 80 81 82 82 81 79 76 75
19 18 17 17 14 16 21 23 26 31 36 40 42 44 50 54 56 59 62 65 68 70 72 75 78 79 78 74 70 64 59 55 53 52 53 55 58 62 68 72 77 80 81 81
21 21 19 18 15 16 23 25 30 35 40 44 48 50 52 55 59 62 64 67 71 75 77 78 75 69 61 53 48 44 41 38 37 35 33 32 32 33 36 41 48 56 64 71
22 21 21 19 20 22 26 29 35 39 44 48 49 52 55 58 61 63 67 73 77 78 75 68 57 49 43 41 40 40 40 40 40 40 39 38 37 34 33 32 31 31 34 42
26 25 24 23 23 28 33 36 40 44 48 52 53 56 60 62 65 68 72 76 74 68 59 49 43 40 40 41 42 43 44 45 45 45 45 45 43 41 39 36 33 32 31 30
26 26 25 27 30 32 37 41 44 47 49 55 57 60 62 65 69 71 73 68 61 53 47 43 42 43 44 46 48 49 49 49 49 48 48 48 47 45 43 40 37 35 34 32
23 25 27 29 32 37 40 44 45 47 51 53 56 60 64 69 73 72 65 55 49 45 45 45 47 49 51 52 53 54 53 53 51 50 49 48 47 46 44 42 40 38 37 35
25 27 29 31 34 40 43 46 49 52 55 58 61 64 68 71 70 64 55 49 48 48 49 51 53 55 56 56 56 55 54 53 52 51 49 48 47 46 44 43 41 41 39 37
26 28 31 34 37 42 46 49 52 55 58 60 63 66 71 71 65 56 50 49 50 52 54 56 57 58 57 57 57 56 55 53 52 51 49 47 46 44 43 42 42 41 40 38
31 31 33 35 38 42 47 50 53 56 58 62 65 69 72 67 59 51 50 51 54 56 58 59 58 57 55 54 53 54 53 52 51 49 47 45 43 42 40 40 40 39 39 38
29 32 35 39 42 43 46 50 54 57 60 63 67 70 69 61 54 51 52 54 57 59 60 59 59 57 55 53 52 50 49 47 46 43 41 39 37 36 36 36 35 35 35 34
33 35 38 41 44 47 49 52 56 58 61 64 67 69 64 56 52 52 54 56 59 60 60 60 59 57 53 50 47 44 41 39 37 34 33 32 31 31 32 32 31 31 31 31
Wind_Direction
19 17 344 272 250 250 241 217 216 226 232 245 252 255 258 259 258 260 266 273 277 279 277 274 271 263 262 268 275 280 285 291 296 300 301 298 296 296 293 289 287 285 284 282
283 228 191 289 299 304 276 254 243 242 244 251 262 268 264 268 275 275 277 277 273 272 272 268 254 244 247 263 272 277 285 291 295 297 297 296 295 294 291 288 284 280 279 279
303 320 328 307 293 276 277 252 244 247 250 256 271 284 284 267 262 267 275 275 271 272 269 270 265 259 272 271 273 280 285 289 293 294 294 293 292 290 286 283 280 275 274 272
264 292 297 297 287 275 276 270 257 258 265 267 266 272 276 268 265 268 277 276 274 286 289 287 288 290 288 286 287 288 288 288 290 292 293 292 289 285 283 281 278 272 269 271
299 294 295 297 287 289 282 273 272 277 280 266 251 248 247 253 263 273 278 283 288 293 293 292 296 296 295 296 295 293 288 286 286 289 291 290 289 287 284 281 278 275 274 276
115 346 343 329 318 320 309 302 301 302 285 269 255 232 241 260 276 279 282 286 290 292 293 293 296 296 296 297 297 299 293 287 285 288 290 289 288 287 286 283 280 279 279 277
146 209 312 331 331 316 313 320 319 318 323 328 327 291 262 277 285 286 287 290 293 296 297 297 297 296 296 295 293 294 292 288 287 287 287 285 284 283 281 280 281 283 283 282
1 20 351 322 324 334 343 344 332 312 310 318 320 296 276 271 274 283 289 296 298 298 298 298 298 297 295 293 290 287 286 284 283 283 283 281 280 279 278 277 277 278 278 279
327 325 300 304 320 334 339 331 312 303 305 304 298 293 291 290 282 278 291 299 300 299 298 297 295 294 293 291 289 286 283 281 279 279 278 277 277 276 275 274 272 270 270 272
299 301 291 303 311 312 318 323 321 317 310 298 295 298 298 301 305 307 303 300 300 299 298 296 294 292 291 289 287 285 283 280 278 277 276 275 274 274 273 272 271 270 268 267
306 308 310 298 279 269 290 313 316 313 310 302 300 293 293 298 299 299 298 297 297 297 296 295 293 292 291 289 287 285 282 280 278 277 275 274 273 272 271 270 269 268 268 266
311 316 316 299 295 291 299 317 319 316 312 309 305 293 297 296 297 297 298 297 296 296 295 294 293 292 292 290 288 286 284 281 279 277 275 273 272 271 270 269 269 268 267 266
316 315 311 308 313 327 325 315 307 304 304 304 300 295 297 298 299 298 296 296 297 297 296 295 295 295 294 292 289 287 285 282 279 277 275 273 271 270 269 267 267 266 266 266
319 315 311 308 306 304 302 300 301 302 300 300 300 302 303 303 303 301 301 301 301 300 299 299 298 297 294 292 290 288 286 283 280 278 275 272 270 267 266 265 264 264 263 263
334 326 319 317 312 300 293 294 303 303 303 304 306 307 306 308 307 306 305 305 304 302 301 301 299 297 295 294 291 290 288 286 284 281 278 274 271 268 265 263 262 261 261 261
339 333 326 319 317 307 300 304 307 305 307 309 310 311 310 311 310 310 310 308 306 305 304 303 301 298 296 294 293 293 292 292 292 291 289 285 278 272 267 264 262 260 259 259
345 340 336 331 328 315 306 313 311 313 315 315 316 315 313 313 313 313 313 311 310 309 307 305 302 301 299 297 296 296 297 298 298 299 300 299 295 287 280 273 267 262 259 258
350 346 341 341 338 321 322 322 320 320 319 318 319 318 318 317 317 318 317 315 315 312 309 307 306 305 304 303 301 299 298 296 295 293 292 291 291 290 286 281 276 272 266 261
348 345 342 344 339 324 329 329 326 326 325 323 324 323 322 321 321 322 320 318 315 313 312 311 310 308 307 306 305 303 300 296 293 291 289 287 286 286 285 282 277 273 272 269
339 337 340 340 336 328 333 330 331 330 328 327 326 324 321 321 322 323 322 320 320 320 317 314 311 308 307 305 303 301 299 296 293 291 288 285 284 282 280 278 274 270 269 269
332 336 338 338 335 330 334 331 330 329 328 326 324 324 325 327 327 327 326 325 324 321 317 313 309 307 305 303 301 300 298 296 293 290 287 284 282 280 277 273 269 267 265 265
337 338 338 337 335 331 332 331 332 331 330 329 329 329 330 330 331 330 330 328 326 322 318 313 310 307 305 303 300 298 296 294 291 288 285 282 280 278 274 270 267 264 263 261
339 339 338 337 334 332 332 333 332 331 331 331 331 332 333 334 334 333 332 330 326 323 319 315 312 309 306 303 301 298 294 292 290 287 285 282 278 275 272 268 264 260 259 257
333 337 335 334 334 333 332 331 331 332 332 333 335 336 337 336 336 336 334 331 328 324 321 318 315 313 310 306 303 299 295 292 289 287 285 282 277 273 269 266 262 258 255 253
329 331 334 334 334 333 330 330 332 334 335 337 338 339 339 339 339 338 337 334 331 328 326 323 320 317 313 308 305 302 297 292 289 287 285 280 275 272 267 263 260 256 250 246
330 332 334 333 332 332 332 333 334 337 338 340 341 342 342 341 341 341 340 338 336 335 333 329 326 323 320 316 312 307 302 297 293 289 286 281 276 271 265 260 257 251 242 237
Height
5872 5873 5872 5872 5872 5873 5875 5876 5878 5881 5878 5876 5875 5877 5877 5873 5871 5870 5870 5868 5865 5861 5856 5848 5837 5829 5831 5838 5837 5836 5837 5837 5836 5836 5835 5834 5832 5831 5830 5829 5828 5827 5826 5826
5873 5870 5870 5871 5871 5871 5873 5874 5875 5874 5872 5871 5871 5871 5871 5869 5866 5865 5862 5859 5854 5848 5838 5827 5815 5805 5817 5828 5832 5831 5831 5831 5830 5829 5828 5827 5825 5824 5824 5822 5822 5821 5820 5820
5871 5868 5868 5870 5869 5869 5869 5868 5867 5867 5866 5866 5866 5866 5866 5864 5859 5854 5852 5848 5842 5832 5823 5813 5800 5794 5810 5821 5822 5823 5825 5824 5824 5823 5822 5821 5819 5817 5817 5816 5816 5815 5815 5815
5870 5869 5869 5868 5867 5866 5866 5864 5864 5863 5863 5863 5865 5863 5862 5855 5850 5848 5846 5838 5831 5829 5825 5815 5805 5805 5811 5813 5813 5814 5817 5817 5816 5816 5815 5814 5813 5811 5810 5810 5809 5809 5809 5809
5868 5868 5867 5866 5865 5864 5862 5861 5860 5860 5859 5857 5857 5857 5855 5849 5845 5845 5843 5839 5834 5830 5826 5819 5813 5811 5809 5809 5808 5807 5808 5809 5809 5809 5808 5807 5806 5806 5805 5804 5804 5804 5803 5803
5865 5867 5866 5864 5863 5862 5860 5859 5858 5857 5854 5850 5847 5848 5847 5846 5844 5842 5840 5837 5833 5828 5823 5818 5814 5811 5808 5807 5805 5803 5802 5802 5802 5802 5801 5801 5801 5800 5799 5798 5797 5797 5797 5797
5861 5864 5865 5864 5863 5862 5859 5858 5857 5855 5849 5843 5842 5842 5842 5842 5839 5837 5835 5832 5828 5824 5819 5814 5810 5807 5805 5803 5801 5798 5797 5796 5795 5794 5793 5793 5793 5793 5793 5792 5791 5791 5790 5790
5859 5862 5864 5864 5862 5860 5858 5857 5857 5854 5851 5850 5844 5840 5836 5832 5832 5831 5829 5826 5822 5818 5814 5809 5805 5802 5798 5796 5794 5792 5790 5789 5787 5786 5784 5784 5784 5784 5784 5783 5783 5783 5782 5781
5864 5864 5865 5864 5861 5860 5858 5856 5855 5852 5850 5849 5846 5837 5831 5824 5822 5823 5823 5821 5816 5811 5806 5802 5798 5794 5791 5787 5785 5783 5781 5778 5776 5775 5774 5772 5772 5772 5772 5772 5772 5772 5772 5772
5865 5864 5864 5863 5862 5859 5857 5855 5852 5850 5847 5844 5843 5835 5828 5823 5818 5818 5816 5813 5809 5804 5798 5793 5788 5784 5780 5776 5772 5770 5767 5765 5763 5761 5760 5758 5757 5757 5757 5757 5757 5758 5759 5760
5864 5863 5862 5860 5856 5855 5855 5853 5850 5848 5845 5841 5838 5834 5826 5822 5817 5813 5809 5805 5800 5795 5789 5783 5777 5772 5767 5763 5758 5755 5752 5749 5747 5745 5744 5742 5741 5740 5739 5740 5740 5741 5743 5745
5863 5862 5859 5858 5854 5849 5850 5850 5847 5844 5841 5837 5834 5830 5823 5817 5813 5807 5801 5795 5789 5784 5778 5771 5765 5759 5754 5749 5743 5739 5735 5732 5730 5727 5725 5723 5722 5721 5721 5721 5721 5722 5724 5727
5861 5860 5858 5856 5855 5850 5848 5847 5844 5840 5836 5832 5828 5823 5817 5812 5806 5799 5792 5786 5779 5773 5765 5758 5751 5745 5739 5733 5727 5721 5717 5713 5709 5707 5704 5703 5701 5701 5700 5700 5701 5702 5703 5707
5859 5857 5856 5854 5852 5850 5847 5845 5840 5836 5832 5827 5822 5814 5807 5803 5797 5790 5783 5775 5767 5759 5750 5742 5735 5727 5719 5712 5706 5699 5694 5688 5684 5681 5679 5678 5677 5676 5677 5678 5679 5680 5682 5685
5857 5855 5851 5849 5847 5846 5843 5840 5837 5832 5827 5821 5816 5809 5798 5792 5786 5778 5771 5762 5752 5742 5733 5724 5715 5705 5696 5688 5680 5672 5666 5660 5656 5652 5650 5648 5647 5647 5649 5651 5654 5656 5660 5663
5854 5851 5848 5846 5843 5841 5838 5835 5832 5826 5820 5814 5808 5802 5792 5782 5774 5766 5757 5746 5735 5724 5714 5703 5692 5682 5671 5662 5654 5647 5641 5636 5631 5627 5624 5620 5619 5619 5620 5622 5625 5630 5635 5639
5851 5847 5844 5842 5840 5838 5833 5831 5825 5820 5812 5805 5798 5791 5782 5773 5763 5753 5742 5730 5717 5705 5692 5679 5666 5656 5647 5640 5634 5630 5626 5622 5618 5614 5611 5607 5604 5602 5601 5601 5603 5605 5609 5614
5849 5845 5842 5839 5837 5832 5832 5825 5819 5813 5805 5796 5789 5780 5770 5760 5750 5739 5725 5709 5695 5681 5667 5656 5646 5639 5633 5627 5622 5618 5614 5610 5606 5603 5600 5597 5595 5592 5591 5591 5591 5592 5592 5594
5847 5843 5839 5836 5833 5828 5822 5817 5811 5804 5795 5785 5777 5767 5757 5745 5735 5725 5708 5692 5676 5661 5650 5641 5634 5628 5623 5617 5612 5607 5603 5598 5594 5590 5587 5585 5582 5581 5580 5580 5581 5581 5582 5582
5845 5841 5837 5833 5828 5823 5819 5810 5803 5797 5788 5776 5766 5756 5745 5734 5722 5712 5694 5676 5661 5649 5640 5632 5625 5619 5613 5607 5600 5594 5589 5584 5579 5575 5572 5570 5568 5567 5567 5567 5568 5569 5570 5571
5844 5839 5835 5830 5824 5816 5813 5804 5799 5791 5783 5772 5761 5748 5734 5720 5706 5690 5676 5663 5651 5641 5632 5623 5615 5607 5600 5593 5585 5579 5573 5567 5563 5559 5555 5553 5551 5550 5551 5552 5553 5555 5556 5559
5840 5836 5831 5826 5820 5814 5805 5797 5789 5781 5770 5759 5748 5735 5722 5708 5692 5675 5661 5651 5641 5632 5623 5613 5603 5594 5585 5576 5568 5561 5555 5549 5544 5541 5538 5536 5534 5533 5534 5536 5538 5540 5542 5545
5837 5832 5826 5821 5817 5808 5798 5790 5782 5772 5762 5750 5738 5725 5710 5694 5679 5665 5653 5642 5632 5621 5610 5599 5587 5577 5568 5558 5549 5542 5536 5530 5525 5522 5519 5518 5516 5516 5516 5518 5521 5524 5527 5531
5831 5828 5823 5817 5811 5803 5794 5785 5777 5767 5754 5741 5727 5713 5697 5681 5668 5656 5645 5633 5621 5609 5596 5583 5571 5560 5550 5540 5530 5522 5516 5510 5506 5503 5501 5499 5498 5498 5499 5501 5504 5508 5512 5517
5830 5824 5818 5811 5805 5799 5791 5780 5770 5759 5746 5732 5718 5702 5686 5671 5659 5647 5636 5624 5611 5597 5584 5569 5556 5543 5532 5522 5512 5504 5497 5491 5487 5485 5483 5482 5482 5482 5484 5486 5489 5493 5498 5503
5823 5818 5812 5806 5798 5790 5782 5771 5761 5749 5737 5724 5710 5695 5679 5664 5651 5640 5628 5615 5601 5586 5571 5556 5542 5527 5515 5504 5495 5487 5480 5474 5471 5470 5468 5468 5468 5468 5470 5472 5476 5480 5486 5492